iso_date,Year,Hour,Min,DOY,POS_DOY,Lat,Lon,BP,Ts,Ta,has_bp,has_ts,has_ta,BuoyID,Buoy_Type,Buoy_Owner,Logistics,Hemisphere
2022-02-16T01:59:57Z,2022,2,0,47.0833,47.0833,,,1028.45,-38.27,-41.3,yes,yes,yes,300234066696580,unknown,unknown,unknown,North
2022-02-16T03:00:00Z,2022,3,0,47.125,47.125,,,1028.3,-36.43,-41.3,yes,yes,yes,300234066696580,unknown,unknown,unknown,North
2022-02-16T04:00:02Z,2022,4,0,47.1667,47.1667,,,1028.74,-36.05,-41.3,yes,yes,yes,300234066696580,unknown,unknown,unknown,North
2022-02-16T04:59:57Z,2022,5,0,47.2083,47.2083,,,1029.02,-35.25,-41.3,yes,yes,yes,300234066696580,unknown,unknown,unknown,North
2022-02-16T06:00:00Z,2022,6,0,47.25,47.25,,,1029.08,-32.55,-41.3,yes,yes,yes,300234066696580,unknown,unknown,unknown,North
2022-02-16T07:00:02Z,2022,7,0,47.2917,47.2917,,,1028.83,-32.12,-41.3,yes,yes,yes,300234066696580,unknown,unknown,unknown,North
2022-02-16T07:59:57Z,2022,8,0,47.3333,47.3333,,,1028.4,-32.34,-41.3,yes,yes,yes,300234066696580,unknown,unknown,unknown,North
2022-02-16T10:00:02Z,2022,10,0,47.4167,47.4167,,,1027.82,-35.38,-41.3,yes,yes,yes,300234066696580,unknown,unknown,unknown,North
2022-02-16T10:59:57Z,2022,11,0,47.4583,47.4583,,,1027.68,-33.78,-41.3,yes,yes,yes,300234066696580,unknown,unknown,unknown,North
2022-02-16T13:00:02Z,2022,13,0,47.5417,47.5417,,,1027.12,-32.37,-41.3,yes,yes,yes,300234066696580,unknown,unknown,unknown,North
2022-02-16T13:59:57Z,2022,14,0,47.5833,47.5833,,,1026.71,-31.6,-41.3,yes,yes,yes,300234066696580,unknown,unknown,unknown,North
2022-02-16T16:00:02Z,2022,16,0,47.6667,47.6667,,,1026.25,-30.43,-41.31,yes,yes,yes,300234066696580,unknown,unknown,unknown,North
2022-02-16T16:59:57Z,2022,17,0,47.7083,47.7083,,,1025.85,-29.59,-41.31,yes,yes,yes,300234066696580,unknown,unknown,unknown,North
2022-02-16T19:00:02Z,2022,19,0,47.7917,47.7917,,,1025.1,-28.08,-41.31,yes,yes,yes,300234066696580,unknown,unknown,unknown,North
2022-02-16T19:59:57Z,2022,20,0,47.8333,47.8333,,,1024.85,-28.43,-41.31,yes,yes,yes,300234066696580,unknown,unknown,unknown,North
2022-02-16T21:00:00Z,2022,21,0,47.875,47.875,,,1024.47,-28.61,-41.3,yes,yes,yes,300234066696580,unknown,unknown,unknown,North
2022-02-16T22:00:02Z,2022,22,0,47.9167,47.9167,,,1024.32,-29.54,-41.3,yes,yes,yes,300234066696580,unknown,unknown,unknown,North
2022-02-16T22:59:57Z,2022,23,0,47.9583,47.9583,,,1024.04,-30.76,-41.3,yes,yes,yes,300234066696580,unknown,unknown,unknown,North
2022-02-17T01:00:02Z,2022,1,0,48.0417,48.0417,,,1023.88,-29.19,-41.3,yes,yes,yes,300234066696580,unknown,unknown,unknown,North
2022-02-17T01:59:57Z,2022,2,0,48.0833,48.0833,,,1024.18,-28.07,-41.3,yes,yes,yes,300234066696580,unknown,unknown,unknown,North
2022-02-17T03:00:00Z,2022,3,0,48.125,48.125,,,1024.62,-28.05,-41.3,yes,yes,yes,300234066696580,unknown,unknown,unknown,North
2022-02-17T04:59:57Z,2022,5,0,48.2083,48.2083,,,1025.54,-28.17,-41.3,yes,yes,yes,300234066696580,unknown,unknown,unknown,North
2022-02-17T06:00:00Z,2022,6,0,48.25,48.25,,,1025.92,-28.09,-41.3,yes,yes,yes,300234066696580,unknown,unknown,unknown,North
2022-02-17T07:00:02Z,2022,7,0,48.2917,48.2917,,,1026.5,-28.34,-41.3,yes,yes,yes,300234066696580,unknown,unknown,unknown,North
2022-02-17T07:59:57Z,2022,8,0,48.3333,48.3333,,,1026.41,-28.55,-41.3,yes,yes,yes,300234066696580,unknown,unknown,unknown,North
2022-02-17T09:00:00Z,2022,9,0,48.375,48.375,,,1026.75,-28.6,-41.3,yes,yes,yes,300234066696580,unknown,unknown,unknown,North
2022-02-17T10:59:57Z,2022,11,0,48.4583,48.4583,,,1027.79,-29.43,-41.3,yes,yes,yes,300234066696580,unknown,unknown,unknown,North
2022-02-17T12:00:00Z,2022,12,0,48.5,48.5,,,1028.41,-29.94,-41.3,yes,yes,yes,300234066696580,unknown,unknown,unknown,North
2022-02-17T13:00:02Z,2022,13,0,48.5417,48.5417,,,1028.91,-29.15,-41.3,yes,yes,yes,300234066696580,unknown,unknown,unknown,North
2022-02-17T13:59:57Z,2022,14,0,48.5833,48.5833,,,1029.22,-29.16,-41.3,yes,yes,yes,300234066696580,unknown,unknown,unknown,North
2022-02-17T16:00:02Z,2022,16,0,48.6667,48.6667,,,1029.17,-27.57,-41.3,yes,yes,yes,300234066696580,unknown,unknown,unknown,North
2022-02-17T16:59:57Z,2022,17,0,48.7083,48.7083,,,1029.56,-27.27,-41.3,yes,yes,yes,300234066696580,unknown,unknown,unknown,North
2022-02-17T18:00:00Z,2022,18,0,48.75,48.75,,,1029.38,-26.44,-41.3,yes,yes,yes,300234066696580,unknown,unknown,unknown,North
2022-02-17T19:00:02Z,2022,19,0,48.7917,48.7917,,,1029.23,-25.24,-41.3,yes,yes,yes,300234066696580,unknown,unknown,unknown,North
2022-02-17T19:59:57Z,2022,20,0,48.8333,48.8333,,,1028.94,-25.15,-41.3,yes,yes,yes,300234066696580,unknown,unknown,unknown,North
2022-02-17T21:00:00Z,2022,21,0,48.875,48.875,,,1028.43,-26.3,-41.3,yes,yes,yes,300234066696580,unknown,unknown,unknown,North
2022-02-17T22:00:02Z,2022,22,0,48.9167,48.9167,,,1028.29,-26.18,-41.3,yes,yes,yes,300234066696580,unknown,unknown,unknown,North
2022-02-17T22:59:57Z,2022,23,0,48.9583,48.9583,,,1028.3,-25.85,-41.3,yes,yes,yes,300234066696580,unknown,unknown,unknown,North
2022-02-18T00:00:00Z,2022,0,0,49.0,49.0,,,1028.08,-25.67,-41.3,yes,yes,yes,300234066696580,unknown,unknown,unknown,North
2022-02-18T01:59:57Z,2022,2,0,49.0833,49.0833,,,1027.66,-24.17,-41.29,yes,yes,yes,300234066696580,unknown,unknown,unknown,North
2022-02-18T04:00:02Z,2022,4,0,49.1667,49.1667,,,1027.44,-24.71,-41.29,yes,yes,yes,300234066696580,unknown,unknown,unknown,North
2022-02-18T04:59:57Z,2022,5,0,49.2083,49.2083,,,1027.4,-24.71,-41.29,yes,yes,yes,300234066696580,unknown,unknown,unknown,North
2022-02-18T07:00:02Z,2022,7,0,49.2917,49.2917,,,1026.85,-23.92,-41.29,yes,yes,yes,300234066696580,unknown,unknown,unknown,North
2022-02-18T07:59:57Z,2022,8,0,49.3333,49.3333,,,1026.28,-23.96,-41.28,yes,yes,yes,300234066696580,unknown,unknown,unknown,North
2022-02-18T09:00:00Z,2022,9,0,49.375,49.375,,,1026.12,-24.87,-41.29,yes,yes,yes,300234066696580,unknown,unknown,unknown,North
2022-02-18T10:00:02Z,2022,10,0,49.4167,49.4167,,,1025.65,-25.97,-41.28,yes,yes,yes,300234066696580,unknown,unknown,unknown,North
2022-02-18T12:00:00Z,2022,12,0,49.5,49.5,,,1024.91,-27.21,-41.29,yes,yes,yes,300234066696580,unknown,unknown,unknown,North
2022-02-18T13:59:57Z,2022,14,0,49.5833,49.5833,,,1024.51,-29.64,-41.28,yes,yes,yes,300234066696580,unknown,unknown,unknown,North
2022-02-18T15:00:00Z,2022,15,0,49.625,49.625,,,1024.15,-30.46,-41.28,yes,yes,yes,300234066696580,unknown,unknown,unknown,North
2022-02-18T16:00:02Z,2022,16,0,49.6667,49.6667,,,1024.24,-31.31,-41.28,yes,yes,yes,300234066696580,unknown,unknown,unknown,North
2022-02-18T16:59:57Z,2022,17,0,49.7083,49.7083,,,1024.25,-32.17,-41.28,yes,yes,yes,300234066696580,unknown,unknown,unknown,North
2022-02-18T18:00:00Z,2022,18,0,49.75,49.75,,,1024.22,-32.43,-41.28,yes,yes,yes,300234066696580,unknown,unknown,unknown,North
2022-02-18T19:59:57Z,2022,20,0,49.8333,49.8333,,,1023.37,-32.75,-41.28,yes,yes,yes,300234066696580,unknown,unknown,unknown,North
2022-02-18T21:00:00Z,2022,21,0,49.875,49.875,,,1023.07,-32.92,-41.28,yes,yes,yes,300234066696580,unknown,unknown,unknown,North
2022-02-18T22:00:02Z,2022,22,0,49.9167,49.9167,,,1023.22,-32.61,-41.28,yes,yes,yes,300234066696580,unknown,unknown,unknown,North
2022-02-19T00:00:00Z,2022,0,0,50.0,50.0,,,1023.24,-32.54,-41.28,yes,yes,yes,300234066696580,unknown,unknown,unknown,North
2022-02-19T01:00:02Z,2022,1,0,50.0417,50.0417,,,1023.47,-33.15,-41.28,yes,yes,yes,300234066696580,unknown,unknown,unknown,North
2022-02-19T01:59:57Z,2022,2,0,50.0833,50.0833,,,1023.19,-32.99,-41.28,yes,yes,yes,300234066696580,unknown,unknown,unknown,North
2022-02-19T03:00:00Z,2022,3,0,50.125,50.125,,,1023.62,-33.03,-41.28,yes,yes,yes,300234066696580,unknown,unknown,unknown,North
2022-02-19T04:00:02Z,2022,4,0,50.1667,50.1667,,,1023.84,-32.4,-41.28,yes,yes,yes,300234066696580,unknown,unknown,unknown,North
2022-02-19T04:59:57Z,2022,5,0,50.2083,50.2083,,,1024.03,-31.23,-41.28,yes,yes,yes,300234066696580,unknown,unknown,unknown,North
2022-02-19T06:00:00Z,2022,6,0,50.25,50.25,,,1024.28,-30.34,-41.28,yes,yes,yes,300234066696580,unknown,unknown,unknown,North
2022-02-19T07:00:02Z,2022,7,0,50.2917,50.2917,,,1024.76,-29.95,-41.28,yes,yes,yes,300234066696580,unknown,unknown,unknown,North
2022-02-19T09:00:00Z,2022,9,0,50.375,50.375,,,1025.45,-32.36,-41.28,yes,yes,yes,300234066696580,unknown,unknown,unknown,North
2022-02-19T10:00:02Z,2022,10,0,50.4167,50.4167,,,1025.75,-33.73,-41.28,yes,yes,yes,300234066696580,unknown,unknown,unknown,North
2022-02-19T10:59:57Z,2022,11,0,50.4583,50.4583,,,1026.16,-34.43,-41.28,yes,yes,yes,300234066696580,unknown,unknown,unknown,North
2022-02-19T12:00:00Z,2022,12,0,50.5,50.5,,,1026.34,-33.5,-41.28,yes,yes,yes,300234066696580,unknown,unknown,unknown,North
2022-02-19T13:00:02Z,2022,13,0,50.5417,50.5417,,,1026.87,-32.25,-41.28,yes,yes,yes,300234066696580,unknown,unknown,unknown,North
2022-02-19T16:00:02Z,2022,16,0,50.6667,50.6667,,,1028.06,-29.87,-41.28,yes,yes,yes,300234066696580,unknown,unknown,unknown,North
2022-02-19T16:59:57Z,2022,17,0,50.7083,50.7083,,,1028.59,-29.59,-41.28,yes,yes,yes,300234066696580,unknown,unknown,unknown,North
2022-02-19T19:00:02Z,2022,19,0,50.7917,50.7917,,,1029.91,-29.2,-41.28,yes,yes,yes,300234066696580,unknown,unknown,unknown,North
2022-02-19T19:59:57Z,2022,20,0,50.8333,50.8333,,,1030.57,-29.62,-41.28,yes,yes,yes,300234066696580,unknown,unknown,unknown,North
2022-02-19T21:00:00Z,2022,21,0,50.875,50.875,,,1031.3,-30.84,-41.28,yes,yes,yes,300234066696580,unknown,unknown,unknown,North
2022-02-19T22:00:02Z,2022,22,0,50.9167,50.9167,,,1031.75,-31.41,-41.28,yes,yes,yes,300234066696580,unknown,unknown,unknown,North
2022-02-20T01:00:02Z,2022,1,0,51.0417,51.0417,,,1033.01,-35.11,-41.28,yes,yes,yes,300234066696580,unknown,unknown,unknown,North
2022-02-20T01:59:57Z,2022,2,0,51.0833,51.0833,,,1033.64,-35.98,-41.28,yes,yes,yes,300234066696580,unknown,unknown,unknown,North
2022-02-20T04:00:02Z,2022,4,0,51.1667,51.1667,,,1034.82,-35.07,-41.28,yes,yes,yes,300234066696580,unknown,unknown,unknown,North
2022-02-20T04:59:57Z,2022,5,0,51.2083,51.2083,,,1035.43,-33.25,-41.28,yes,yes,yes,300234066696580,unknown,unknown,unknown,North
2022-02-20T06:00:00Z,2022,6,0,51.25,51.25,,,1036.02,-31.79,-41.28,yes,yes,yes,300234066696580,unknown,unknown,unknown,North
2022-02-20T07:59:57Z,2022,8,0,51.3333,51.3333,,,1036.47,-30.89,-41.27,yes,yes,yes,300234066696580,unknown,unknown,unknown,North
2022-02-20T09:00:00Z,2022,9,0,51.375,51.375,,,1036.6,-32.83,-41.27,yes,yes,yes,300234066696580,unknown,unknown,unknown,North
2022-02-20T10:00:02Z,2022,10,0,51.4167,51.4167,,,1036.6,-34.08,-41.28,yes,yes,yes,300234066696580,unknown,unknown,unknown,North
2022-02-20T10:59:57Z,2022,11,0,51.4583,51.4583,,,1036.97,-34.95,-41.27,yes,yes,yes,300234066696580,unknown,unknown,unknown,North
2022-02-20T12:00:00Z,2022,12,0,51.5,51.5,,,1037.22,-35.68,-41.28,yes,yes,yes,300234066696580,unknown,unknown,unknown,North
2022-02-20T13:00:02Z,2022,13,0,51.5417,51.5417,,,1037.64,-36.05,-41.28,yes,yes,yes,300234066696580,unknown,unknown,unknown,North
2022-02-20T13:59:57Z,2022,14,0,51.5833,51.5833,,,1037.6,-35.83,-41.28,yes,yes,yes,300234066696580,unknown,unknown,unknown,North
2022-02-20T16:00:02Z,2022,16,0,51.6667,51.6667,,,1038.11,-35.68,-41.28,yes,yes,yes,300234066696580,unknown,unknown,unknown,North
2022-02-20T16:59:57Z,2022,17,0,51.7083,51.7083,,,1038.16,-36.09,-41.28,yes,yes,yes,300234066696580,unknown,unknown,unknown,North
2022-02-20T19:00:02Z,2022,19,0,51.7917,51.7917,,,1038.27,-36.31,-41.27,yes,yes,yes,300234066696580,unknown,unknown,unknown,North
2022-02-20T19:59:57Z,2022,20,0,51.8333,51.8333,,,1038.05,-36.47,-41.28,yes,yes,yes,300234066696580,unknown,unknown,unknown,North
2022-02-20T21:00:00Z,2022,21,0,51.875,51.875,,,1038.01,-36.46,-41.28,yes,yes,yes,300234066696580,unknown,unknown,unknown,North
2022-02-20T22:00:02Z,2022,22,0,51.9167,51.9167,,,1038.09,-36.41,-41.27,yes,yes,yes,300234066696580,unknown,unknown,unknown,North
2022-02-20T22:59:57Z,2022,23,0,51.9583,51.9583,,,1038.08,-36.26,-41.27,yes,yes,yes,300234066696580,unknown,unknown,unknown,North
2022-02-21T00:00:00Z,2022,0,0,52.0,52.0,,,1038.18,-36.18,-41.28,yes,yes,yes,300234066696580,unknown,unknown,unknown,North
2022-02-21T01:00:02Z,2022,1,0,52.0417,52.0417,,,1037.87,-35.99,-41.27,yes,yes,yes,300234066696580,unknown,unknown,unknown,North
2022-02-21T01:59:57Z,2022,2,0,52.0833,52.0833,,,1037.43,-35.43,-41.27,yes,yes,yes,300234066696580,unknown,unknown,unknown,North
2022-02-21T03:00:00Z,2022,3,0,52.125,52.125,,,1037.68,-35.01,-41.27,yes,yes,yes,300234066696580,unknown,unknown,unknown,North
2022-02-21T04:00:02Z,2022,4,0,52.1667,52.1667,,,1037.55,-33.87,-41.27,yes,yes,yes,300234066696580,unknown,unknown,unknown,North
2022-02-21T04:59:57Z,2022,5,0,52.2083,52.2083,,,1037.25,-31.56,-41.27,yes,yes,yes,300234066696580,unknown,unknown,unknown,North
2022-02-21T06:00:00Z,2022,6,0,52.25,52.25,,,1036.36,-29.97,-41.28,yes,yes,yes,300234066696580,unknown,unknown,unknown,North
2022-02-21T07:59:57Z,2022,8,0,52.3333,52.3333,,,1034.87,-28.63,-41.27,yes,yes,yes,300234066696580,unknown,unknown,unknown,North
2022-02-21T09:00:00Z,2022,9,0,52.375,52.375,,,1034.44,-29.26,-41.27,yes,yes,yes,300234066696580,unknown,unknown,unknown,North
2022-02-21T10:00:02Z,2022,10,0,52.4167,52.4167,,,1033.5,-29.79,-41.27,yes,yes,yes,300234066696580,unknown,unknown,unknown,North
2022-02-21T12:00:00Z,2022,12,0,52.5,52.5,,,1031.1,-29.38,-41.27,yes,yes,yes,300234066696580,unknown,unknown,unknown,North
2022-02-21T13:00:02Z,2022,13,0,52.5417,52.5417,,,1029.92,-29.2,-41.27,yes,yes,yes,300234066696580,unknown,unknown,unknown,North
2022-02-21T13:59:57Z,2022,14,0,52.5833,52.5833,,,1029.07,-29.57,-41.27,yes,yes,yes,300234066696580,unknown,unknown,unknown,North
2022-02-21T15:00:00Z,2022,15,0,52.625,52.625,,,1027.9,-30.02,-41.27,yes,yes,yes,300234066696580,unknown,unknown,unknown,North
2022-02-21T16:00:02Z,2022,16,0,52.6667,52.6667,,,1026.34,-29.95,-41.27,yes,yes,yes,300234066696580,unknown,unknown,unknown,North
2022-02-21T16:59:57Z,2022,17,0,52.7083,52.7083,,,1025.44,-29.76,-41.26,yes,yes,yes,300234066696580,unknown,unknown,unknown,North
2022-02-21T18:00:00Z,2022,18,0,52.75,52.75,,,1024.54,-29.69,-41.27,yes,yes,yes,300234066696580,unknown,unknown,unknown,North
2022-02-21T19:00:02Z,2022,19,0,52.7917,52.7917,,,1022.88,-29.79,-41.26,yes,yes,yes,300234066696580,unknown,unknown,unknown,North
2022-02-21T19:59:57Z,2022,20,0,52.8333,52.8333,,,1021.17,-29.61,-41.26,yes,yes,yes,300234066696580,unknown,unknown,unknown,North
2022-02-21T21:00:00Z,2022,21,0,52.875,52.875,,,1019.61,-29.04,-41.26,yes,yes,yes,300234066696580,unknown,unknown,unknown,North
2022-02-21T22:00:02Z,2022,22,0,52.9167,52.9167,,,1017.96,-28.49,-41.26,yes,yes,yes,300234066696580,unknown,unknown,unknown,North
2022-02-21T22:59:57Z,2022,23,0,52.9583,52.9583,,,1016.73,-27.84,-41.26,yes,yes,yes,300234066696580,unknown,unknown,unknown,North
2022-02-22T00:00:00Z,2022,0,0,53.0,53.0,,,1015.77,-27.1,-41.26,yes,yes,yes,300234066696580,unknown,unknown,unknown,North
2022-02-22T01:00:02Z,2022,1,0,53.0417,53.0417,,,1014.19,-26.12,-41.26,yes,yes,yes,300234066696580,unknown,unknown,unknown,North
2022-02-22T01:59:57Z,2022,2,0,53.0833,53.0833,,,1012.66,-24.93,-41.26,yes,yes,yes,300234066696580,unknown,unknown,unknown,North
2022-02-22T04:00:02Z,2022,4,0,53.1667,53.1667,,,1010.53,-21.74,-41.26,yes,yes,yes,300234066696580,unknown,unknown,unknown,North
2022-02-22T04:59:57Z,2022,5,0,53.2083,53.2083,,,1009.63,-18.97,-41.25,yes,yes,yes,300234066696580,unknown,unknown,unknown,North
2022-02-22T06:00:00Z,2022,6,0,53.25,53.25,,,1008.74,-15.04,-41.25,yes,yes,yes,300234066696580,unknown,unknown,unknown,North
2022-02-22T07:00:02Z,2022,7,0,53.2917,53.2917,,,1007.77,-14.11,-41.25,yes,yes,yes,300234066696580,unknown,unknown,unknown,North
2022-02-22T07:59:57Z,2022,8,0,53.3333,53.3333,,,1006.97,-13.62,-41.25,yes,yes,yes,300234066696580,unknown,unknown,unknown,North
2022-02-22T09:00:00Z,2022,9,0,53.375,53.375,,,1006.17,-12.8,-41.25,yes,yes,yes,300234066696580,unknown,unknown,unknown,North
2022-02-22T10:00:02Z,2022,10,0,53.4167,53.4167,,,1005.68,-10.91,-41.24,yes,yes,yes,300234066696580,unknown,unknown,unknown,North
2022-02-22T10:59:57Z,2022,11,0,53.4583,53.4583,,,1005.28,-9.61,-41.24,yes,yes,yes,300234066696580,unknown,unknown,unknown,North
2022-02-22T12:00:00Z,2022,12,0,53.5,53.5,,,1004.7,-8.06,-41.24,yes,yes,yes,300234066696580,unknown,unknown,unknown,North
2022-02-22T13:00:02Z,2022,13,0,53.5417,53.5417,,,1003.94,-7.36,-41.23,yes,yes,yes,300234066696580,unknown,unknown,unknown,North
2022-02-22T13:59:57Z,2022,14,0,53.5833,53.5833,,,1003.18,-7.59,-41.22,yes,yes,yes,300234066696580,unknown,unknown,unknown,North
2022-02-22T15:00:00Z,2022,15,0,53.625,53.625,,,1002.67,-7.08,-41.22,yes,yes,yes,300234066696580,unknown,unknown,unknown,North
2022-02-22T16:00:02Z,2022,16,0,53.6667,53.6667,,,1002.13,-6.23,-41.21,yes,yes,yes,300234066696580,unknown,unknown,unknown,North
2022-02-22T16:59:57Z,2022,17,0,53.7083,53.7083,,,1001.77,-6.09,-41.21,yes,yes,yes,300234066696580,unknown,unknown,unknown,North
2022-02-22T18:00:00Z,2022,18,0,53.75,53.75,,,1001.42,-6.37,-41.21,yes,yes,yes,300234066696580,unknown,unknown,unknown,North
2022-02-22T19:00:02Z,2022,19,0,53.7917,53.7917,,,1000.75,-6.77,-41.21,yes,yes,yes,300234066696580,unknown,unknown,unknown,North
2022-02-22T19:59:57Z,2022,20,0,53.8333,53.8333,,,1000.12,-6.63,-41.2,yes,yes,yes,300234066696580,unknown,unknown,unknown,North
2022-02-22T21:00:00Z,2022,21,0,53.875,53.875,,,999.56,-6.39,-41.2,yes,yes,yes,300234066696580,unknown,unknown,unknown,North
2022-02-22T22:00:02Z,2022,22,0,53.9167,53.9167,,,999.16,-6.46,-41.19,yes,yes,yes,300234066696580,unknown,unknown,unknown,North
2022-02-23T00:00:00Z,2022,0,0,54.0,54.0,,,999.26,-6.56,-41.19,yes,yes,yes,300234066696580,unknown,unknown,unknown,North
2022-02-23T01:00:02Z,2022,1,0,54.0417,54.0417,,,999.22,-6.6,-41.2,yes,yes,yes,300234066696580,unknown,unknown,unknown,North
2022-02-23T01:59:57Z,2022,2,0,54.0833,54.0833,,,999.12,-6.4,-41.2,yes,yes,yes,300234066696580,unknown,unknown,unknown,North
2022-02-23T04:00:02Z,2022,4,0,54.1667,54.1667,,,999.58,-5.71,-41.19,yes,yes,yes,300234066696580,unknown,unknown,unknown,North
2022-02-23T04:59:57Z,2022,5,0,54.2083,54.2083,,,999.65,-5.73,-41.19,yes,yes,yes,300234066696580,unknown,unknown,unknown,North
2022-02-23T06:00:00Z,2022,6,0,54.25,54.25,,,999.61,-4.06,-41.17,yes,yes,yes,300234066696580,unknown,unknown,unknown,North
2022-02-23T07:59:57Z,2022,8,0,54.3333,54.3333,,,999.38,-4.78,-41.17,yes,yes,yes,300234066696580,unknown,unknown,unknown,North
2022-02-23T09:00:00Z,2022,9,0,54.375,54.375,,,999.36,-4.56,-41.16,yes,yes,yes,300234066696580,unknown,unknown,unknown,North
2022-02-23T10:00:02Z,2022,10,0,54.4167,54.4167,,,999.25,-4.45,-41.17,yes,yes,yes,300234066696580,unknown,unknown,unknown,North
2022-02-23T10:59:57Z,2022,11,0,54.4583,54.4583,,,1000.11,-5.79,-41.16,yes,yes,yes,300234066696580,unknown,unknown,unknown,North
2022-02-23T12:00:00Z,2022,12,0,54.5,54.5,,,1001.86,-11.55,-41.19,yes,yes,yes,300234066696580,unknown,unknown,unknown,North
2022-02-23T13:00:02Z,2022,13,0,54.5417,54.5417,,,1003.18,-15.16,-41.2,yes,yes,yes,300234066696580,unknown,unknown,unknown,North
2022-02-23T13:59:57Z,2022,14,0,54.5833,54.5833,,,1004.49,-18.17,-41.21,yes,yes,yes,300234066696580,unknown,unknown,unknown,North
2022-02-23T15:00:00Z,2022,15,0,54.625,54.625,,,1005.71,-18.87,-41.21,yes,yes,yes,300234066696580,unknown,unknown,unknown,North
2022-02-23T16:00:02Z,2022,16,0,54.6667,54.6667,,,1006.91,-19.21,-41.22,yes,yes,yes,300234066696580,unknown,unknown,unknown,North
2022-02-23T16:59:57Z,2022,17,0,54.7083,54.7083,,,1008.33,-19.92,-41.22,yes,yes,yes,300234066696580,unknown,unknown,unknown,North
2022-02-23T18:00:00Z,2022,18,0,54.75,54.75,,,1009.75,-21.15,-41.22,yes,yes,yes,300234066696580,unknown,unknown,unknown,North
2022-02-23T19:00:02Z,2022,19,0,54.7917,54.7917,,,1010.74,-21.94,-41.23,yes,yes,yes,300234066696580,unknown,unknown,unknown,North
2022-02-23T19:59:57Z,2022,20,0,54.8333,54.8333,,,1011.62,-23.01,-41.24,yes,yes,yes,300234066696580,unknown,unknown,unknown,North
2022-02-23T21:00:00Z,2022,21,0,54.875,54.875,,,1012.41,-23.5,-41.23,yes,yes,yes,300234066696580,unknown,unknown,unknown,North
2022-02-23T22:59:57Z,2022,23,0,54.9583,54.9583,,,1014.42,-24.39,-41.24,yes,yes,yes,300234066696580,unknown,unknown,unknown,North
2022-02-24T00:00:00Z,2022,0,0,55.0,55.0,,,1015.19,-25.14,-41.24,yes,yes,yes,300234066696580,unknown,unknown,unknown,North
2022-02-24T01:00:02Z,2022,1,0,55.0417,55.0417,,,1015.97,-25.59,-41.25,yes,yes,yes,300234066696580,unknown,unknown,unknown,North
2022-02-24T03:00:00Z,2022,3,0,55.125,55.125,,,1018.04,-26.04,-41.24,yes,yes,yes,300234066696580,unknown,unknown,unknown,North
2022-02-24T04:00:02Z,2022,4,0,55.1667,55.1667,,,1018.37,-26.01,-41.24,yes,yes,yes,300234066696580,unknown,unknown,unknown,North
2022-02-24T04:59:57Z,2022,5,0,55.2083,55.2083,,,1018.8,-25.61,-41.24,yes,yes,yes,300234066696580,unknown,unknown,unknown,North
2022-02-24T06:00:00Z,2022,6,0,55.25,55.25,,,1019.4,-25.32,-41.24,yes,yes,yes,300234066696580,unknown,unknown,unknown,North
2022-02-24T07:00:02Z,2022,7,0,55.2917,55.2917,,,1019.85,-25.17,-41.25,yes,yes,yes,300234066696580,unknown,unknown,unknown,North
2022-02-24T07:59:57Z,2022,8,0,55.3333,55.3333,,,1020.14,-26.44,-41.25,yes,yes,yes,300234066696580,unknown,unknown,unknown,North
2022-02-24T09:00:00Z,2022,9,0,55.375,55.375,,,1020.02,-27.1,-41.25,yes,yes,yes,300234066696580,unknown,unknown,unknown,North
2022-02-24T10:00:02Z,2022,10,0,55.4167,55.4167,,,1020.19,-27.92,-41.24,yes,yes,yes,300234066696580,unknown,unknown,unknown,North
2022-02-24T12:00:00Z,2022,12,0,55.5,55.5,,,1020.86,-29.1,-41.25,yes,yes,yes,300234066696580,unknown,unknown,unknown,North
2022-02-24T13:00:02Z,2022,13,0,55.5417,55.5417,,,1021.06,-28.68,-41.25,yes,yes,yes,300234066696580,unknown,unknown,unknown,North
2022-02-24T13:59:57Z,2022,14,0,55.5833,55.5833,,,1020.78,-28.33,-41.24,yes,yes,yes,300234066696580,unknown,unknown,unknown,North
2022-02-24T15:00:00Z,2022,15,0,55.625,55.625,,,1020.72,-29.12,-41.25,yes,yes,yes,300234066696580,unknown,unknown,unknown,North
2022-02-24T16:00:02Z,2022,16,0,55.6667,55.6667,,,1020.85,-29.72,-41.25,yes,yes,yes,300234066696580,unknown,unknown,unknown,North
2022-02-24T16:59:57Z,2022,17,0,55.7083,55.7083,,,1021.29,-30.06,-41.25,yes,yes,yes,300234066696580,unknown,unknown,unknown,North
2022-02-24T18:00:00Z,2022,18,0,55.75,55.75,,,1021.3,-30.21,-41.25,yes,yes,yes,300234066696580,unknown,unknown,unknown,North
2022-02-24T19:00:02Z,2022,19,0,55.7917,55.7917,,,1021.16,-30.25,-41.25,yes,yes,yes,300234066696580,unknown,unknown,unknown,North
2022-02-24T19:59:57Z,2022,20,0,55.8333,55.8333,,,1020.87,-30.48,-41.25,yes,yes,yes,300234066696580,unknown,unknown,unknown,North
2022-02-24T21:00:00Z,2022,21,0,55.875,55.875,,,1020.65,-30.53,-41.25,yes,yes,yes,300234066696580,unknown,unknown,unknown,North
2022-02-24T22:00:02Z,2022,22,0,55.9167,55.9167,,,1020.8,-30.52,-41.25,yes,yes,yes,300234066696580,unknown,unknown,unknown,North
2022-02-25T00:00:00Z,2022,0,0,56.0,56.0,,,1020.95,-30.09,-41.25,yes,yes,yes,300234066696580,unknown,unknown,unknown,North
2022-02-25T01:00:02Z,2022,1,0,56.0417,56.0417,,,1020.9,-29.72,-41.25,yes,yes,yes,300234066696580,unknown,unknown,unknown,North
2022-02-25T03:00:00Z,2022,3,0,56.125,56.125,,,1021.52,-28.31,-41.24,yes,yes,yes,300234066696580,unknown,unknown,unknown,North
2022-02-25T04:59:57Z,2022,5,0,56.2083,56.2083,,,1021.78,-25.44,-41.25,yes,yes,yes,300234066696580,unknown,unknown,unknown,North
2022-02-25T07:00:02Z,2022,7,0,56.2917,56.2917,,,1021.74,-23.48,-41.25,yes,yes,yes,300234066696580,unknown,unknown,unknown,North
2022-02-25T07:59:57Z,2022,8,0,56.3333,56.3333,,,1021.68,-22.61,-41.24,yes,yes,yes,300234066696580,unknown,unknown,unknown,North
2022-02-25T09:00:00Z,2022,9,0,56.375,56.375,,,1021.86,-21.89,-41.24,yes,yes,yes,300234066696580,unknown,unknown,unknown,North
2022-02-25T10:00:02Z,2022,10,0,56.4167,56.4167,,,1022.16,-22.01,-41.24,yes,yes,yes,300234066696580,unknown,unknown,unknown,North
2022-02-25T10:59:57Z,2022,11,0,56.4583,56.4583,,,1022.44,-22.44,-41.24,yes,yes,yes,300234066696580,unknown,unknown,unknown,North